CW4054 Weather Reports


time (UTC)temp
C
wind
direction
speed
KPH
gust
KPH
rain 1hr
cm
rain 24hr
cm
rain mn
cm
humidity
%
barometer
mb
20260507101352 11 31 0.0 0.0 0.00 0.74 0.23 91 1012.8
20260507100834 11 31 0.0 0.0 0.00 0.74 0.23 91 1012.6
20260507100340 11 31 0.0 0.0 0.00 0.74 0.23 91 1012.5
20260507095834 11 31 0.0 0.0 0.00 0.74 0.23 91 1012.5
20260507095400 11 31 0.0 0.0 0.00 0.74 0.23 91 1012.6
20260507094826 11 31 0.0 0.0 0.00 0.74 0.23 91 1012.5
20260507094332 11 31 0.0 0.0 0.00 0.74 0.23 91 1012.4
20260507093838 11 31 0.0 0.0 0.00 0.74 0.23 91 1012.5
20260507093324 11 31 0.0 0.0 0.00 0.74 0.23 91 1012.5
20260507092831 11 31 0.0 0.0 0.00 0.74 0.23 91 1012.8
20260507092357 11 31 0.0 0.0 0.00 0.74 0.23 91 1012.7
20260507091825 11 31 0.0 0.0 0.00 0.74 0.23 91 1012.7
20260507091350 11 31 0.0 0.0 0.00 0.74 0.23 91 1012.7
20260507090835 11 31 0.0 0.0 0.00 0.74 0.23 91 1012.6
20260507090321 11 31 0.0 0.0 0.00 0.74 0.23 91 1012.5
20260507085837 11 31 0.0 0.0 0.00 0.74 0.23 91 1012.4
20260507085343 11 31 0.0 0.0 0.00 0.74 0.23 91 1012.5
20260507084828 11 31 0.0 0.0 0.00 0.74 0.23 91 1012.4
20260507084334 11 31 0.0 0.0 0.00 0.74 0.23 91 1012.4
20260507083859 11 31 0.0 0.0 0.00 0.74 0.23 90 1012.4
20260507083324 11 31 0.0 1.6 0.00 0.74 0.23 90 1012.3
20260507082829 11 31 0.0 1.6 0.00 0.74 0.23 90 1012.1
20260507082335 11 31 0.0 1.6 0.00 0.74 0.23 90 1011.9
20260507081900 11 31 0.0 0.0 0.00 0.74 0.23 90 1011.8
20260507081325 11 31 0.0 0.0 0.03 0.74 0.23 90 1011.7
20260507080836 11 31 0.0 1.6 0.03 0.74 0.23 90 1011.6
20260507080322 11 31 0.0 1.6 0.03 0.74 0.23 90 1011.8
20260507075838 11 31 0.0 1.6 0.03 0.74 0.23 90 1011.8
20260507075344 11 31 0.0 3.2 0.03 0.74 0.23 90 1011.8
20260507074827 11 31 0.0 3.2 0.03 0.74 0.23 90 1011.7
20260507074334 11 31 0.0 4.8 0.03 0.74 0.23 90 1011.8
20260507073839 11 31 0.0 4.8 0.03 0.74 0.23 90 1011.6
20260507073326 11 31 0.0 3.2 0.08 0.74 0.23 90 1011.6
20260507072831 11 31 0.0 4.8 0.08 0.74 0.23 90 1011.7
20260507072336 11 32 0.0 6.4 0.13 0.74 0.23 90 1011.6
20260507071821 11 38 1.6 6.4 0.13 0.74 0.23 90 1011.8
20260507071330 11 20 0.0 1.6 0.10 0.71 0.20 90 1012.0
20260507070835 11 20 0.0 0.0 0.10 0.71 0.20 90 1012.0
20260507070341 11 20 0.0 0.0 0.10 0.71 0.20 90 1012.2
20260507065836 11 20 0.0 3.2 0.10 0.71 0.20 90 1012.1
20260507065323 11 20 0.0 3.2 0.10 0.71 0.20 89 1012.1
20260507064827 12 24 0.0 0.0 0.10 0.71 0.20 89 1011.9
20260507064333 12 24 0.0 6.4 0.10 0.71 0.20 89 1011.9
20260507063859 12 24 0.0 6.4 0.10 0.71 0.20 89 1011.9
20260507063322 12 27 0.0 4.8 0.05 0.66 0.15 89 1012.0
20260507062827 12 26 0.0 4.8 0.03 0.64 0.13 89 1011.8
20260507062332 12 342 0.0 3.2 0.00 0.61 0.10 89 1012.0
20260507061837 12 341 0.0 4.8 0.00 0.61 0.10 89 1012.0
20260507061327 12 342 0.0 1.6 0.00 0.61 0.10 89 1012.0
20260507060851 12 338 0.0 1.6 0.00 0.61 0.10 90 1012.0
20260507060336 12 337 0.0 1.6 0.00 0.61 0.10 90 1012.3
20260507055832 12 337 0.0 0.0 0.00 0.61 0.10 90 1011.8
20260507055339 12 337 0.0 3.2 0.03 0.61 0.10 90 1012.0
20260507054825 12 337 0.0 3.2 0.03 0.61 0.10 90 1011.9
20260507054331 12 337 0.0 3.2 0.03 0.61 0.10 90 1011.9
20260507053857 12 337 0.0 3.2 0.03 0.61 0.10 90 1012.0
20260507053342 12 338 0.0 3.2 0.03 0.61 0.10 90 1011.8
20260507052825 12 337 0.0 1.6 0.03 0.61 0.10 89 1011.8
20260507052331 12 337 0.0 1.6 0.05 0.61 0.10 89 1011.8
20260507051839 12 337 0.0 1.6 0.08 0.61 0.10 89 1011.8
20260507051346 12 337 0.0 1.6 0.10 0.61 0.10 89 1011.9
20260507050831 13 337 0.0 4.8 0.10 0.61 0.10 89 1012.0
20260507050340 13 337 0.0 4.8 0.10 0.61 0.10 89 1012.0
20260507045855 13 337 0.0 1.6 0.13 0.61 0.10 89 1011.8
20260507045321 13 340 0.0 4.8 0.10 0.58 0.08 89 1012.3
20260507044848 13 340 0.0 6.4 0.10 0.58 0.08 89 1012.6
20260507044333 13 342 3.2 6.4 0.10 0.58 0.08 89 1012.4
20260507043839 13 43 1.6 4.8 0.10 0.58 0.08 89 1012.2
20260507043324 13 319 0.0 0.0 0.10 0.58 0.08 89 1012.1
20260507042850 13 319 0.0 4.8 0.10 0.58 0.08 89 1011.8
20260507042333 13 319 0.0 4.8 0.08 0.56 0.05 89 1011.6
20260507041839 13 319 0.0 3.2 0.08 0.53 0.03 88 1011.5
20260507041346 13 319 0.0 6.4 0.05 0.51 0.00 88 1011.6
20260507040850 14 320 0.0 4.8 0.05 0.51 0.00 88 1011.9
20260507040335 14 350 0.0 4.8 0.05 0.51 0.00 88 1011.8
20260507035831 14 355 0.0 0.0 0.03 0.48 0.48 88 1011.9
20260507035321 14 355 0.0 6.4 0.03 0.48 0.48 87 1011.5
20260507034827 14 355 0.0 6.4 0.03 0.48 0.48 87 1011.8
20260507034333 15 9 0.0 1.6 0.03 0.48 0.48 88 1011.3
20260507033859 15 9 0.0 4.8 0.03 0.48 0.48 87 1011.3
20260507033323 15 9 1.6 6.4 0.03 0.48 0.48 87 1011.3
20260507032828 15 10 1.6 6.4 0.03 0.48 0.48 87 1011.1
20260507032332 15 9 0.0 4.8 0.03 0.48 0.48 86 1011.0
20260507031837 15 355 0.0 4.8 0.00 0.46 0.46 87 1010.8
20260507031322 15 342 1.6 4.8 0.00 0.46 0.46 87 1011.4
20260507030827 15 12 0.0 3.2 0.00 0.46 0.46 87 1010.9
20260507030334 15 338 0.0 1.6 0.00 0.46 0.46 87 1011.2
20260507025830 15 338 0.0 3.2 0.00 0.46 0.46 87 1010.8
20260507025320 15 338 0.0 3.2 0.00 0.46 0.46 86 1010.7
20260507024827 15 331 0.0 1.6 0.00 0.46 0.46 86 1010.8
20260507024334 15 331 0.0 6.4 0.00 0.46 0.46 86 1010.8
20260507023839 16 331 1.6 6.4 0.00 0.46 0.46 86 1010.9
20260507023325 16 310 0.0 6.4 0.00 0.46 0.46 86 1011.0
20260507022832 16 349 0.0 1.6 0.00 0.46 0.46 86 1010.9
20260507022337 16 349 0.0 1.6 0.00 0.46 0.46 85 1010.9
20260507021823 16 349 0.0 0.0 0.00 0.46 0.46 86 1010.7
20260507021328 16 349 0.0 3.2 0.00 0.46 0.46 86 1010.8
20260507020833 16 349 0.0 6.4 0.00 0.46 0.46 85 1010.7
20260507020323 16 350 1.6 6.4 0.00 0.46 0.46 86 1010.9
20260507015821 16 355 0.0 1.6 0.00 0.46 0.46 86 1010.9
20260507015326 16 355 0.0 4.8 0.00 0.46 0.46 85 1010.7
20260507014853 16 355 0.0 4.8 0.03 0.46 0.46 85 1010.5
20260507014338 16 355 1.6 6.4 0.03 0.46 0.46 86 1010.5
20260507013822 16 360 1.6 6.4 0.03 0.46 0.46 86 1010.4
20260507013328 16 305 1.6 6.4 0.03 0.46 0.46 86 1010.7
20260507012833 17 330 0.0 6.4 0.05 0.46 0.46 86 1011.0
20260507012359 17 315 0.0 9.7 0.05 0.46 0.46 86 1010.8
20260507011822 17 315 1.6 14.5 0.05 0.46 0.46 86 1010.7
20260507011329 17 20 3.2 14.5 0.05 0.46 0.46 86 1010.8
20260507010836 17 336 1.6 12.9 0.05 0.46 0.46 87 1010.7
20260507010323 18 336 4.8 12.9 0.05 0.46 0.46 88 1010.8
20260507005839 18 302 0.0 3.2 0.05 0.46 0.46 88 1010.6
20260507005346 18 301 0.0 6.4 0.03 0.43 0.43 87 1010.4
20260507004832 18 300 1.6 8.0 0.03 0.43 0.43 87 1010.5
20260507004358 18 302 3.2 8.0 0.03 0.43 0.43 87 1010.7
20260507003901 18 304 0.0 6.4 0.03 0.43 0.43 86 1010.5
20260507003325 18 305 1.6 12.9 0.03 0.43 0.43 85 1010.4
20260507002830 18 306 0.0 12.9 0.00 0.41 0.41 85 1010.3
20260507002335 19 306 4.8 12.9 0.00 0.41 0.41 84 1010.4
20260507001843 19 288 1.6 6.4 0.00 0.41 0.41 85 1010.2
20260507001327 19 243 1.6 3.2 0.00 0.41 0.41 85 1010.0
20260507000853 19 242 0.0 3.2 0.00 0.41 0.41 84 1009.9
20260507000338 19 242 0.0 3.2 0.00 0.41 0.41 84 1009.9
20260506235855 19 242 0.0 0.0 0.00 0.41 0.41 84 1009.7
20260506235320 20 242 0.0 0.0 0.00 0.41 0.41 84 1009.8
20260506234830 20 242 0.0 0.0 0.00 0.41 0.41 83 1009.6
20260506234336 20 242 0.0 0.0 0.00 0.41 0.41 82 1009.3
20260506233821 20 242 0.0 3.2 0.00 0.41 0.41 82 1009.3
20260506233325 20 242 0.0 3.2 0.00 0.41 0.41 82 1009.4
20260506232831 20 242 0.0 3.2 0.00 0.41 0.41 82 1009.4
20260506232336 20 242 0.0 3.2 0.00 0.41 0.41 81 1009.4
20260506231823 20 242 0.0 3.2 0.00 0.41 0.41 81 1009.4
20260506231328 20 242 0.0 3.2 0.00 0.41 0.41 81 1009.3
20260506230835 20 242 0.0 3.2 0.00 0.41 0.41 81 1009.2
20260506230322 20 242 0.0 4.8 0.00 0.41 0.41 80 1009.1
20260506225823 20 242 1.6 4.8 0.00 0.41 0.41 80 1009.2
20260506225350 20 238 1.6 4.8 0.00 0.41 0.41 80 1009.3
20260506224836 20 238 1.6 4.8 0.00 0.41 0.41 80 1009.2
20260506224322 20 236 1.6 4.8 0.00 0.41 0.41 80 1009.1
20260506223829 20 232 0.0 6.4 0.00 0.41 0.41 80 1009.1
20260506223335 20 224 3.2 6.4 0.00 0.41 0.41 79 1009.1
20260506222822 20 202 0.0 6.4 0.00 0.41 0.41 79 1009.1
20260506222348 20 253 1.6 9.7 0.00 0.41 0.41 80 1009.2
20260506221332 20 217 1.6 11.3 0.00 0.41 0.41 79 1009.2
20260506220836 20 237 6.4 11.3 0.00 0.41 0.41 78 1009.3
20260506220324 20 271 1.6 6.4 0.00 0.41 0.41 78 1009.3
20260506215855 20 212 0.0 6.4 0.00 0.41 0.41 78 1009.3
20260506215323 20 288 1.6 8.0 0.00 0.41 0.41 79 1009.3
20260506214828 20 224 0.0 4.8 0.00 0.41 0.41 79 1009.1
20260506214334 20 226 0.0 6.4 0.00 0.41 0.41 79 1009.1
20260506213840 20 207 0.0 3.2 0.00 0.41 0.41 80 1009.0
20260506213327 20 205 0.0 6.4 0.00 0.41 0.41 79 1008.9
20260506212833 20 213 3.2 6.4 0.00 0.41 0.41 79 1009.1
20260506212338 20 213 1.6 6.4 0.00 0.41 0.41 79 1008.9
20260506211843 20 213 1.6 6.4 0.00 0.41 0.41 79 1008.9
20260506211327 20 225 1.6 6.4 0.00 0.41 0.41 78 1008.8
20260506210851 20 225 1.6 16.1 0.00 0.41 0.41 78 1008.7
20260506210356 20 248 3.2 16.1 0.00 0.41 0.41 77 1008.8
20260506205850 20 220 4.8 11.3 0.00 0.41 0.41 77 1008.7
20260506205334 21 234 3.2 11.3 0.00 0.41 0.41 76 1008.5
20260506204823 21 284 4.8 12.9 0.00 0.41 0.41 76 1008.5
20260506204328 21 242 4.8 11.3 0.00 0.41 0.41 76 1008.6
20260506203833 21 258 1.6 9.7 0.00 0.41 0.41 77 1008.4
20260506203339 20 217 1.6 9.7 0.00 0.41 0.41 79 1008.5
20260506202825 20 232 3.2 9.7 0.00 0.41 0.41 79 1008.7
20260506202331 20 241 1.6 11.3 0.00 0.41 0.41 79 1008.7
20260506201857 20 290 3.2 14.5 0.00 0.41 0.41 79 1008.7
20260506201320 20 284 1.6 11.3 0.00 0.41 0.41 79 1008.6
20260506200827 20 244 1.6 11.3 0.00 0.41 0.41 80 1008.6
20260506200332 20 246 1.6 11.3 0.00 0.41 0.41 79 1008.6
20260506195828 20 241 4.8 12.9 0.00 0.41 0.41 78 1008.6
20260506195352 20 232 6.4 14.5 0.00 0.41 0.41 79 1008.6
20260506194836 20 329 1.6 8.0 0.00 0.41 0.41 80 1008.6
20260506194324 20 331 3.2 11.3 0.00 0.41 0.41 81 1008.7
20260506193832 20 223 4.8 11.3 0.00 0.41 0.41 79 1008.7
20260506193336 20 223 4.8 14.5 0.00 0.41 0.41 79 1008.7
20260506192821 20 282 6.4 14.5 0.00 0.41 0.41 79 1008.7
20260506192347 20 130 4.8 14.5 0.00 0.41 0.41 79 1008.7
20260506191832 20 267 4.8 14.5 0.00 0.41 0.41 81 1008.8
20260506191338 20 217 4.8 14.5 0.00 0.41 0.41 80 1008.9
20260506190824 20 199 8.0 12.9 0.00 0.41 0.41 80 1008.9
20260506190352 19 225 1.6 17.7 0.00 0.41 0.41 82 1008.7
20260506185827 19 244 9.7 17.7 0.00 0.41 0.41 81 1008.9
20260506185332 19 200 6.4 12.9 0.00 0.41 0.41 82 1008.9
20260506184821 19 185 3.2 14.5 0.00 0.41 0.41 83 1009.0
20260506184326 18 241 6.4 14.5 0.00 0.41 0.41 82 1009.1
20260506183831 18 261 4.8 14.5 0.00 0.41 0.41 83 1009.1
20260506183357 18 215 4.8 16.1 0.00 0.41 0.41 83 1009.1
20260506182843 18 205 3.2 16.1 0.00 0.41 0.41 84 1009.1
20260506182328 18 182 4.8 16.1 0.00 0.41 0.41 84 1009.1
20260506181835 18 227 4.8 20.9 0.00 0.41 0.41 83 1009.1
20260506181320 18 219 1.6 20.9 0.00 0.41 0.41 84 1009.2
20260506180826 18 243 6.4 17.7 0.00 0.41 0.41 83 1009.2
20260506180332 18 212 3.2 17.7 0.00 0.41 0.41 84 1009.2
20260506175828 18 256 6.4 17.7 0.00 0.41 0.41 84 1009.4
20260506175335 18 236 4.8 14.5 0.00 0.41 0.41 85 1009.4
20260506174823 18 180 4.8 19.3 0.00 0.41 0.41 85 1009.5
20260506174330 18 159 8.0 19.3 0.00 0.41 0.41 85 1009.4
20260506173857 17 194 4.8 16.1 0.00 0.41 0.41 86 1009.4
20260506173322 17 250 9.7 19.3 0.00 0.41 0.41 86 1009.4
20260506172829 17 244 6.4 19.3 0.00 0.41 0.41 86 1009.4
20260506172355 17 259 4.8 12.9 0.00 0.41 0.41 86 1009.4
20260506171839 17 171 6.4 12.9 0.00 0.41 0.41 87 1009.4
20260506171326 17 218 6.4 17.7 0.00 0.41 0.41 87 1009.3
20260506170832 17 212 8.0 17.7 0.00 0.41 0.41 87 1009.4
20260506170337 17 206 1.6 19.3 0.00 0.41 0.41 87 1009.4
20260506165833 17 232 9.7 17.7 0.00 0.41 0.41 87 1009.5
20260506165336 16 227 9.7 17.7 0.00 0.41 0.41 88 1009.2
20260506164901 16 232 3.2 16.1 0.00 0.41 0.41 88 1009.3
20260506164329 16 160 8.0 16.1 0.00 0.41 0.41 88 1009.4
20260506163855 16 221 4.8 17.7 0.00 0.41 0.41 88 1009.6
20260506163320 16 204 8.0 17.7 0.00 0.41 0.41 88 1009.6
20260506162827 16 198 8.0 16.1 0.00 0.41 0.41 89 1009.6
20260506162332 16 213 6.4 25.7 0.00 0.41 0.41 89 1009.6
20260506161837 16 174 8.0 24.1 0.00 0.41 0.41 89 1009.4
20260506161321 16 215 6.4 19.3 0.00 0.41 0.41 89 1009.7
20260506160825 16 217 8.0 17.7 0.03 0.41 0.41 89 1009.6
20260506160330 16 220 3.2 16.1 0.03 0.41 0.41 89 1009.8
20260506155826 16 218 6.4 16.1 0.03 0.41 0.41 89 1009.9
20260506155332 16 182 6.4 17.7 0.05 0.41 0.41 90 1009.9
20260506154820 16 217 8.0 19.3 0.08 0.41 0.41 90 1009.9
20260506154327 16 200 8.0 17.7 0.10 0.41 0.41 90 1009.7
20260506153834 16 190 4.8 19.3 0.10 0.41 0.41 90 1009.8
20260506153400 16 219 8.0 22.5 0.10 0.41 0.41 90 1009.7
20260506152824 16 175 6.4 22.5 0.10 0.41 0.41 90 1009.8
20260506152349 16 224 4.8 20.9 0.10 0.41 0.41 90 1009.8
20260506151854 16 191 8.0 22.5 0.10 0.41 0.41 90 1010.0
20260506151359 16 194 8.0 22.5 0.13 0.41 0.41 90 1009.9
20260506150824 15 214 4.8 12.9 0.10 0.38 0.38 90 1010.0
20260506150330 15 193 6.4 24.1 0.10 0.38 0.38 90 1010.2
20260506145825 16 177 11.3 24.1 0.13 0.38 0.38 90 1010.4
20260506145331 16 242 6.4 19.3 0.10 0.36 0.36 90 1010.5
20260506144839 16 206 4.8 16.1 0.10 0.33 0.33 90 1010.5
20260506144323 16 160 4.8 17.7 0.10 0.30 0.30 90 1010.6
20260506143835 16 153 4.8 19.3 0.10 0.30 0.30 90 1010.5
20260506143320 16 176 4.8 20.9 0.13 0.30 0.30 90 1010.4
20260506142825 16 151 6.4 20.9 0.13 0.30 0.30 90 1010.3
20260506142331 16 202 4.8 19.3 0.13 0.30 0.30 90 1010.3
20260506141836 16 205 6.4 19.3 0.15 0.30 0.30 90 1010.3
20260506141321 16 141 4.8 19.3 0.13 0.28 0.28 90 1010.2
20260506140828 16 194 3.2 19.3 0.15 0.28 0.28 90 1010.3
20260506140334 16 194 4.8 16.1 0.15 0.28 0.28 90 1010.4
20260506135829 16 190 1.6 12.9 0.15 0.25 0.25 89 1010.4
20260506135335 16 212 4.8 12.9 0.15 0.25 0.25 89 1010.3
20260506134825 16 173 0.0 16.1 0.15 0.23 0.23 89 1010.2
20260506134333 16 145 6.4 16.1 0.13 0.20 0.20 89 1010.6
20260506133839 16 209 1.6 12.9 0.15 0.20 0.20 89 1010.8
20260506133325 16 201 1.6 11.3 0.15 0.18 0.18 89 1011.1
20260506132832 16 227 4.8 9.7 0.15 0.18 0.18 89 1011.0
20260506132357 16 220 1.6 6.4 0.18 0.18 0.18 89 1011.0
20260506131823 16 219 1.6 6.4 0.15 0.15 0.15 89 1010.7
20260506131328 16 219 1.6 6.4 0.15 0.15 0.15 89 1010.8
20260506130833 16 219 0.0 9.7 0.13 0.13 0.13 88 1010.7
20260506130358 16 219 3.2 16.1 0.13 0.13 0.13 88 1010.8
20260506125833 16 208 1.6 6.4 0.10 0.10 0.10 87 1010.6
20260506125337 16 208 0.0 9.7 0.10 0.10 0.10 87 1010.6
20260506124827 16 209 3.2 9.7 0.08 0.08 0.08 86 1010.5
20260506124333 16 228 1.6 16.1 0.05 0.05 0.05 85 1010.5
20260506123840 16 252 1.6 16.1 0.05 0.05 0.05 84 1010.5
20260506123327 17 259 0.0 14.5 0.03 0.03 0.03 83 1010.6
20260506122832 17 161 3.2 14.5 0.03 0.03 0.03 82 1010.6
20260506122337 17 219 3.2 12.9 0.00 0.00 0.00 81 1010.8
20260506121820 17 209 4.8 9.7 0.00 0.00 0.00 80 1010.7
20260506121346 17 206 3.2 16.1 0.00 0.00 0.00 78 1010.8
20260506120832 17 215 3.2 16.1 0.00 0.00 0.00 77 1010.9
20260506120337 17 254 1.6 9.7 0.00 0.00 0.00 77 1011.0
20260506115832 18 182 3.2 9.7 0.00 0.00 0.00 76 1010.9
20260506115323 18 223 4.8 16.1 0.00 0.00 0.00 75 1010.9
20260506114848 18 212 6.4 17.7 0.00 0.00 0.00 74 1010.9
20260506114334 18 195 3.2 17.7 0.00 0.00 0.00 74 1010.9
20260506113838 18 262 4.8 16.1 0.00 0.00 0.00 74 1010.8
20260506113324 18 216 3.2 16.1 0.00 0.00 0.00 74 1010.7
20260506112830 18 237 3.2 16.1 0.00 0.00 0.00 74 1010.5
20260506112336 18 217 4.8 14.5 0.00 0.00 0.00 73 1010.6
20260506111822 18 235 1.6 12.9 0.00 0.00 0.00 73 1010.4
20260506111326 18 261 3.2 12.9 0.00 0.00 0.00 73 1010.5
20260506110833 18 203 4.8 12.9 0.00 0.00 0.00 73 1010.4
20260506110338 18 234 4.8 12.9 0.00 0.00 0.00 73 1010.3
20260506105832 18 214 8.0 11.3 0.00 0.00 0.00 73 1010.3
20260506105321 18 234 1.6 19.3 0.00 0.00 0.00 73 1010.1
20260506104828 18 218 8.0 19.3 0.00 0.00 0.00 72 1010.1
20260506104353 18 225 8.0 22.5 0.00 0.00 0.00 71 1010.1
20260506103839 18 192 6.4 16.1 0.00 0.00 0.00 71 1009.9
20260506103343 18 212 6.4 17.7 0.00 0.00 0.00 71 1009.9
20260506102827 18 217 9.7 17.7 0.00 0.00 0.00 70 1009.7
20260506102333 18 232 1.6 14.5 0.00 0.00 0.00 70 1009.8
20260506101839 18 194 6.4 14.5 0.00 0.00 0.00 70 1009.9